Weather History for Hill City, KS

Change the Weather History Date:

Wednesday, November 21, 2012

  Actual Average Record
Temperature  
Mean Temperature 59 °F 38 °F  
Max Temperature 75 °F 51 °F 75 °F (2012)
Min Temperature 43 °F 25 °F 3 °F (1964)
Degree Days  
Heating Degree Days 6    
Growing Degree Days 10 (Base 50)    
Moisture  
Dew Point 33 °F    
Average Humidity 45    
Maximum Humidity 68    
Minimum Humidity 16    
Precipitation  
Precipitation 0.00 in 0.03 in 0.00 in (2014)
Month to date precipitation 0.00 0.74  
Year to date precipitation 9.74 22.02  
Sea Level Pressure  
Sea Level Pressure 29.94 in    
Wind  
Wind Speed 10 mph (SW)    
Max Wind Speed 22 mph    
Max Gust Speed 33 mph    
Visibility 10 miles    
Events      
T = Trace of Precipitation, MM = Missing Value Source: NWS Daily Summary

Daily Weather History Graph

Daily Weather History Graph

Search for Another Location

Airport:

Trip Planner

Search our weather history database for the weather conditions in past years. The results will help you decide how hot, cold, wet, or windy it might be!

Date:

Astronomy

Nov. 21, 2012 Rise Set
Actual Time 7:30 AM CST 5:20 PM CST
Civil Twilight 7:01 AM CST 5:49 PM CST
Nautical Twilight 6:28 AM CST 6:22 PM CST
Astronomical Twilight 5:56 AM CST 6:54 PM CST
Moon 1:35 PM CST (11/21) 12:53 AM CST (11/21)
Length of Visible Light 10h 48m
Length of Day
9h 49m
First Quarter, 62% of the Moon is Illuminated
Nov 21
First Quarter
Nov 28
Full
Dec 6
Last Quarter
Dec 13
New
Dec 19
First Quarter

Hourly Weather History & Observations

Time (CST) Temp. Windchill Dew Point Humidity Pressure Visibility Wind Dir Wind Speed Gust Speed Precip Events Conditions
12:53 AM 48.9 °F - 36.0 °F 61% 30.10 in 10.0 mi WSW 5.8 mph - N/A   Clear
1:53 AM 46.9 °F - 36.0 °F 66% 30.09 in 10.0 mi WSW 9.2 mph - N/A   Clear
2:53 AM 46.0 °F 41.4 °F 35.1 °F 66% 30.08 in 10.0 mi SW 9.2 mph - N/A   Clear
3:53 AM 44.1 °F 39.5 °F 34.0 °F 68% 30.07 in 10.0 mi SW 8.1 mph - N/A   Clear
4:53 AM 45.0 °F 41.8 °F 33.1 °F 63% 30.06 in 10.0 mi WSW 5.8 mph - N/A   Clear
6:53 AM 45.0 °F 40.1 °F 34.0 °F 65% 30.05 in 10.0 mi SW 9.2 mph - N/A   Clear
7:53 AM 44.1 °F 41.5 °F 34.0 °F 68% 30.06 in 10.0 mi Variable 4.6 mph - N/A   Clear
8:53 AM 48.0 °F - 35.1 °F 61% 30.06 in 10.0 mi SW 8.1 mph - N/A   Clear
9:53 AM 55.9 °F - 34.0 °F 44% 30.04 in 10.0 mi SW 9.2 mph 19.6 mph N/A   Clear
10:53 AM 62.1 °F - 30.9 °F 31% 30.00 in 10.0 mi SSW 15.0 mph 25.3 mph N/A   Clear
11:53 AM 66.9 °F - 28.9 °F 24% 29.96 in 10.0 mi SSW 18.4 mph 25.3 mph N/A   Clear
1:53 PM 73.0 °F - 26.1 °F 17% 29.88 in 10.0 mi SSW 17.3 mph 27.6 mph N/A   Clear
2:53 PM 75.0 °F - 26.1 °F 16% 29.85 in 10.0 mi SSW 21.9 mph 33.4 mph N/A   Clear
3:53 PM 73.9 °F - 28.0 °F 18% 29.83 in 10.0 mi SSW 18.4 mph 27.6 mph N/A   Clear
4:53 PM 72.0 °F - 28.0 °F 20% 29.82 in 10.0 mi SSW 13.8 mph 23.0 mph N/A   Clear
5:53 PM 64.9 °F - 30.9 °F 28% 29.82 in 10.0 mi South 8.1 mph - N/A   Clear
6:53 PM 64.0 °F - 34.0 °F 33% 29.82 in 10.0 mi South 11.5 mph - N/A   Clear
7:53 PM 63.0 °F - 37.0 °F 38% 29.82 in 10.0 mi SSW 12.7 mph - N/A   Clear
8:53 PM 61.0 °F - 37.9 °F 42% 29.81 in 10.0 mi SSW 10.4 mph 17.3 mph N/A   Clear
9:53 PM 60.1 °F - 37.9 °F 44% 29.81 in 10.0 mi SSW 11.5 mph - N/A   Clear
10:53 PM 57.0 °F - 37.9 °F 49% 29.79 in 10.0 mi West 4.6 mph - N/A   Clear
11:53 PM 54.0 °F - 39.0 °F 57% 29.76 in 10.0 mi SW 6.9 mph - N/A   Clear